This is the latest recevied weather packets stored in our database for station/object K7ZQU-7. If no packets are shown the sender has not sent any weather packets the latest 10 day(s).
| Time | Temp. | Humidity | Pressure | Rain* | Wind** | Luminosity | Snow |
|---|---|---|---|---|---|---|---|
| 1777842692 | 20.56° C | 29% | 1014.1 hPa | 0 mm | 0.89 m/s, 49° | - | - |
| 1777842394 | 20.56° C | 30% | 1014.1 hPa | 0 mm | 0.45 m/s, 359° | - | - |
| 1777842094 | 21.11° C | 26% | 1014.1 hPa | 0 mm | 1.34 m/s, 28° | - | - |
| 1777841792 | 21.11° C | 28% | 1014.3 hPa | 0 mm | 2.24 m/s, 153° | - | - |
| 1777841493 | 21.11° C | 28% | 1014.3 hPa | 0 mm | 1.34 m/s, 200° | - | - |
| 1777841194 | 21.11° C | 29% | 1014.3 hPa | 0 mm | 0 m/s | - | - |
| 1777840896 | 20.56° C | 29% | 1014.4 hPa | 0 mm | 2.24 m/s, 101° | - | - |
| 1777840597 | 20.56° C | 28% | 1014.4 hPa | 0 mm | 2.24 m/s, 179° | - | - |
| 1777840295 | 20.56° C | 29% | 1014.4 hPa | 0 mm | 0.89 m/s, 160° | - | - |
| 1777839996 | 20° C | 30% | 1014.5 hPa | 0 mm | 1.34 m/s, 59° | - | - |
| 1777839398 | 20° C | 30% | 1014.6 hPa | 0 mm | 1.34 m/s, 218° | - | - |
| 1777839099 | 20° C | 30% | 1014.5 hPa | 0 mm | 1.34 m/s, 124° | - | - |
| 1777838798 | 20° C | 29% | 1014.7 hPa | 0 mm | 1.79 m/s, 176° | - | - |
| 1777838200 | 20° C | 33% | 1014.7 hPa | 0 mm | 1.34 m/s, 215° | - | - |
| 1777837901 | 20° C | 32% | 1014.7 hPa | 0 mm | 1.79 m/s, 4° | - | - |
| 1777837602 | 20° C | 33% | 1014.7 hPa | 0 mm | 0.89 m/s, 160° | - | - |
| 1777837303 | 20° C | 34% | 1014.9 hPa | 0 mm | 2.24 m/s, 117° | - | - |
| 1777837002 | 19.44° C | 36% | 1014.9 hPa | 0 mm | 1.34 m/s, 129° | - | - |
| 1777836703 | 19.44° C | 34% | 1015 hPa | 0 mm | 1.34 m/s, 197° | - | - |
| 1777836405 | 19.44° C | 34% | 1014.9 hPa | 0 mm | 1.79 m/s, 86° | - | - |
| 1777836105 | 19.44° C | 36% | 1015 hPa | 0 mm | 1.79 m/s, 231° | - | - |
| 1777835803 | 19.44° C | 36% | 1015 hPa | 0 mm | 1.79 m/s, 27° | - | - |
| 1777835504 | 19.44° C | 36% | 1015 hPa | 0 mm | 2.24 m/s, 204° | - | - |
| 1777834306 | 18.89° C | 38% | 1015 hPa | 0 mm | 0.45 m/s, 173° | - | - |
| 1777833708 | 18.33° C | 39% | 1015.1 hPa | 0 mm | 2.24 m/s, 117° | - | - |
* Rain latest hour (hover to see other rain measurements)
** Current wind speed in m/s (hover to see current wind gust speed)